Voltar ao catálogo

OPS 9431

DSCS 2-1

AtivoMilitarGEO
NORAD 5587·PAYLOAD·🇺🇸 United States

Lançado Nov 3, 1971 de Cape Canaveral Space Force Station

Loading…

TLE

AtualizadoSource: Space-Track

Época: Sep 14, 2026, 13:19 UTC

1 05587U 71095A   26257.55486414 -.00000113  00000-0  00000-0 0  9992
2 05587   1.3723 250.0524 0006372 357.3067 203.7592  1.00260664122918

Acompanhe OPS 9431 em tempo real com AllMySat

Download on the App Store